Location: Overspoor
(51.4747°N, 5.6641°E)
Time: 21:40:30
(UTC+02:00)

RS-15 - Pass Details

Date: 27 June 2022
Orbit: 1881 x 2163 km, 64.8° (Epoch: 15 August)

Event Time Altitude Azimuth Distance (km) Brightness Sun altitude
Rises 23:03:54 0° 301° (WNW) 5,669 11.9 -7.7°
Reaches altitude 10° 23:07:34 10° 307° (NW) 4,680 11.4 -8.0°
Maximum altitude 23:19:36 51° 22° (NNE) 2,580 8.9 -9.1°
Drops below altitude 10° 23:31:26 10° 97° (E) 4,620 9.6 -10.0°
Sets 23:35:01 0° 103° (ESE) 5,593 10.0 -10.3°
